| time (UTC) | temp F | wind direction | speed MPH | gust MPH | rain 1hr in | rain 24hr in | rain mn in | humidity % | barometer mb |
| 20260906213104 | 92 | 0 | 0.0 | 3.0 | 0.00 | 0.00 | 0.00 | 57 | 1010.3 |
| 20260906211607 | 93 | 82 | 1.0 | 3.0 | 0.00 | 0.00 | 0.00 | 57 | 1010.8 |
| 20260906210107 | 93 | 141 | 0.0 | 2.0 | 0.00 | 0.00 | 0.00 | 56 | 1011.1 |
| 20260906204623 | 94 | 85 | 0.0 | 4.0 | 0.00 | 0.00 | 0.00 | 55 | 1011.3 |
| 20260906203104 | 96 | 72 | 0.0 | 3.0 | 0.00 | 0.00 | 0.00 | 54 | 1011.3 |
| 20260906201616 | 95 | 0 | 0.0 | 4.0 | 0.00 | 0.00 | 0.00 | 55 | 1011.4 |
| 20260906200105 | 94 | 0 | 0.0 | 3.0 | 0.00 | 0.00 | 0.00 | 55 | 1011.4 |
| 20260906194603 | 93 | 0 | 1.0 | 4.0 | 0.00 | 0.12 | 0.00 | 56 | 1011.2 |
| 20260906193107 | 92 | 113 | 0.0 | 3.0 | 0.00 | 0.12 | 0.00 | 58 | 1011.8 |
| 20260906191607 | 95 | 0 | 0.0 | 3.0 | 0.00 | 0.12 | 0.00 | 56 | 1011.8 |
| 20260906184603 | 91 | 0 | 0.0 | 2.0 | 0.00 | 0.12 | 0.00 | 61 | 1011.8 |
| 20260906183104 | 91 | 90 | 0.0 | 2.0 | 0.00 | 0.12 | 0.00 | 63 | 1012.1 |
| 20260906181602 | 93 | 103 | 0.0 | 3.0 | 0.00 | 0.12 | 0.00 | 60 | 1012.1 |
| 20260906180120 | 92 | 101 | 0.0 | 3.0 | 0.00 | 0.12 | 0.00 | 61 | 1012.6 |
| 20260906174608 | 90 | 0 | 0.0 | 2.0 | 0.00 | 0.12 | 0.00 | 63 | 1012.8 |
| 20260906173108 | 89 | 0 | 0.0 | 2.0 | 0.00 | 0.12 | 0.00 | 65 | 1012.9 |
| 20260906171609 | 89 | 0 | 0.0 | 2.0 | 0.00 | 0.12 | 0.00 | 66 | 1013.2 |
| 20260906170107 | 89 | 124 | 0.0 | 3.0 | 0.00 | 0.12 | 0.00 | 66 | 1013.4 |
| 20260906164610 | 90 | 0 | 0.0 | 0.0 | 0.00 | 0.12 | 0.00 | 65 | 1013.1 |
| 20260906163104 | 90 | 0 | 0.0 | 1.0 | 0.00 | 0.12 | 0.00 | 68 | 1013.4 |
| 20260906161607 | 88 | 0 | 0.0 | 2.0 | 0.00 | 0.12 | 0.00 | 71 | 1013.3 |
| 20260906160106 | 87 | 0 | 0.0 | 1.0 | 0.00 | 0.12 | 0.00 | 75 | 1013.3 |
| 20260906154607 | 85 | 0 | 0.0 | 1.0 | 0.00 | 0.12 | 0.00 | 77 | 1013.3 |
| 20260906153105 | 84 | 0 | 0.0 | 1.0 | 0.00 | 0.12 | 0.00 | 79 | 1013.2 |
| 20260906151603 | 83 | 0 | 0.0 | 1.0 | 0.00 | 0.12 | 0.00 | 85 | 1013.1 |
| 20260906150109 | 82 | 0 | 0.0 | 1.0 | 0.00 | 0.12 | 0.00 | 89 | 1013.1 |
| 20260906144605 | 81 | 0 | 0.0 | 1.0 | 0.00 | 0.12 | 0.00 | 92 | 1013.2 |
| 20260906143112 | 81 | 0 | 0.0 | 1.0 | 0.00 | 0.12 | 0.00 | 93 | 1013.2 |
| 20260906141605 | 80 | 161 | 0.0 | 2.0 | 0.00 | 0.12 | 0.00 | 94 | 1013.2 |
| 20260906140107 | 79 | 0 | 0.0 | 2.0 | 0.00 | 0.12 | 0.00 | 94 | 1013.2 |
| 20260906134559 | 79 | 0 | 0.0 | 0.0 | 0.00 | 0.12 | 0.00 | 94 | 1012.9 |
| 20260906133111 | 79 | 0 | 0.0 | 0.0 | 0.00 | 0.12 | 0.00 | 94 | 1012.9 |
| 20260906131604 | 78 | 0 | 0.0 | 0.0 | 0.00 | 0.12 | 0.00 | 94 | 1012.9 |
| 20260906130104 | 77 | 0 | 0.0 | 0.0 | 0.00 | 0.12 | 0.00 | 93 | 1012.7 |
| 20260906124603 | 77 | 0 | 0.0 | 0.0 | 0.00 | 0.12 | 0.00 | 93 | 1012.5 |
| 20260906123111 | 77 | 0 | 0.0 | 0.0 | 0.00 | 0.12 | 0.00 | 93 | 1012.5 |
| 20260906121558 | 77 | 0 | 0.0 | 0.0 | 0.00 | 0.12 | 0.00 | 93 | 1012.5 |
| 20260906120147 | 77 | 0 | 0.0 | 0.0 | 0.00 | 0.12 | 0.00 | 92 | 1011.9 |
| 20260906114629 | 77 | 0 | 0.0 | 0.0 | 0.00 | 0.12 | 0.00 | 92 | 1011.9 |
| 20260906113105 | 77 | 0 | 0.0 | 0.0 | 0.00 | 0.12 | 0.00 | 92 | 1011.9 |
| 20260906111622 | 77 | 0 | 0.0 | 0.0 | 0.00 | 0.12 | 0.00 | 92 | 1011.7 |
| 20260906104605 | 77 | 0 | 0.0 | 0.0 | 0.00 | 0.12 | 0.00 | 91 | 1011.5 |
| 20260906103112 | 77 | 0 | 0.0 | 0.0 | 0.00 | 0.12 | 0.00 | 91 | 1011.4 |
| 20260906101603 | 77 | 0 | 0.0 | 0.0 | 0.00 | 0.12 | 0.00 | 91 | 1011.0 |
| 20260906100104 | 78 | 0 | 0.0 | 1.0 | 0.00 | 0.12 | 0.00 | 91 | 1011.1 |
| 20260906094605 | 78 | 0 | 0.0 | 0.0 | 0.00 | 0.12 | 0.00 | 90 | 1010.9 |
| 20260906093105 | 78 | 0 | 0.0 | 0.0 | 0.00 | 0.12 | 0.00 | 90 | 1011.1 |
| 20260906091607 | 78 | 0 | 0.0 | 0.0 | 0.00 | 0.12 | 0.00 | 90 | 1011.0 |
| 20260906090105 | 78 | 0 | 0.0 | 0.0 | 0.00 | 0.12 | 0.00 | 90 | 1010.8 |
| 20260906084615 | 78 | 0 | 0.0 | 0.0 | 0.00 | 0.12 | 0.00 | 90 | 1010.8 |
| 20260906083106 | 78 | 0 | 0.0 | 0.0 | 0.00 | 0.12 | 0.00 | 90 | 1010.9 |
| 20260906081605 | 78 | 0 | 0.0 | 0.0 | 0.00 | 0.12 | 0.00 | 90 | 1011.0 |
| 20260906080104 | 78 | 0 | 0.0 | 0.0 | 0.00 | 0.12 | 0.00 | 90 | 1011.3 |
| 20260906074602 | 78 | 0 | 0.0 | 0.0 | 0.00 | 0.12 | 0.00 | 90 | 1011.3 |
| 20260906073105 | 78 | 0 | 0.0 | 1.0 | 0.00 | 0.12 | 0.00 | 90 | 1011.3 |
| 20260906071605 | 78 | 0 | 0.0 | 0.0 | 0.00 | 0.12 | 0.00 | 90 | 1011.3 |
| 20260906070105 | 78 | 0 | 0.0 | 0.0 | 0.00 | 0.12 | 0.00 | 89 | 1011.5 |
| 20260906064604 | 78 | 0 | 0.0 | 0.0 | 0.00 | 0.12 | 0.00 | 89 | 1011.7 |
| 20260906063104 | 78 | 0 | 0.0 | 1.0 | 0.00 | 0.12 | 0.00 | 89 | 1011.4 |
| 20260906061612 | 78 | 0 | 0.0 | 0.0 | 0.00 | 0.12 | 0.00 | 89 | 1011.7 |
| 20260906060112 | 78 | 0 | 0.0 | 1.0 | 0.00 | 0.12 | 0.00 | 89 | 1011.8 |
| 20260906054641 | 78 | 0 | 0.0 | 1.0 | 0.00 | 0.12 | 0.00 | 89 | 1011.6 |
| 20260906053105 | 78 | 0 | 0.0 | 1.0 | 0.00 | 0.12 | 0.00 | 89 | 1011.7 |
| 20260906051605 | 78 | 0 | 0.0 | 1.0 | 0.00 | 0.12 | 0.00 | 88 | 1011.8 |
| 20260906050108 | 78 | 0 | 0.0 | 1.0 | 0.00 | 0.12 | 0.00 | 88 | 1011.7 |
| 20260906044604 | 78 | 0 | 0.0 | 1.0 | 0.00 | 0.12 | 0.12 | 88 | 1011.9 |
| 20260906043104 | 78 | 0 | 0.0 | 1.0 | 0.00 | 0.12 | 0.12 | 87 | 1011.8 |
| 20260906041605 | 78 | 0 | 0.0 | 0.0 | 0.00 | 0.12 | 0.12 | 87 | 1011.9 |
| 20260906040121 | 79 | 0 | 0.0 | 0.0 | 0.00 | 0.12 | 0.12 | 87 | 1011.8 |
| 20260906034604 | 79 | 0 | 0.0 | 1.0 | 0.00 | 0.12 | 0.12 | 87 | 1011.7 |
| 20260906033126 | 79 | 0 | 0.0 | 1.0 | 0.00 | 0.12 | 0.12 | 86 | 1011.5 |
| 20260906031618 | 79 | 0 | 0.0 | 2.0 | 0.00 | 0.12 | 0.12 | 86 | 1011.7 |
| 20260906030104 | 79 | 0 | 0.0 | 1.0 | 0.00 | 0.12 | 0.12 | 85 | 1011.9 |
| 20260906024608 | 80 | 0 | 0.0 | 1.0 | 0.00 | 0.12 | 0.12 | 84 | 1011.6 |
| 20260906023102 | 80 | 0 | 0.0 | 2.0 | 0.00 | 0.12 | 0.12 | 83 | 1011.6 |
| 20260906021609 | 80 | 0 | 0.0 | 3.0 | 0.00 | 0.12 | 0.12 | 82 | 1011.4 |
| 20260906020106 | 80 | 0 | 0.0 | 0.0 | 0.00 | 0.12 | 0.12 | 80 | 1011.0 |
| 20260906014603 | 81 | 0 | 0.0 | 0.0 | 0.00 | 0.12 | 0.12 | 79 | 1010.7 |
| 20260906013112 | 81 | 0 | 0.0 | 1.0 | 0.00 | 0.12 | 0.12 | 78 | 1010.3 |
| 20260906011606 | 82 | 0 | 0.0 | 2.0 | 0.00 | 0.12 | 0.12 | 77 | 1010.3 |
| 20260906010103 | 82 | 0 | 1.0 | 4.0 | 0.00 | 0.12 | 0.12 | 76 | 1010.5 |
| 20260906004607 | 83 | 83 | 0.0 | 3.0 | 0.00 | 0.12 | 0.12 | 74 | 1010.5 |
| 20260906003104 | 83 | 0 | 0.0 | 2.0 | 0.00 | 0.12 | 0.12 | 73 | 1010.7 |
| 20260906001602 | 84 | 0 | 0.0 | 3.0 | 0.00 | 0.12 | 0.12 | 72 | 1011.0 |
| 20260906000109 | 84 | 78 | 1.0 | 3.0 | 0.00 | 0.12 | 0.12 | 70 | 1010.8 |
| 20260905234607 | 85 | 76 | 1.0 | 3.0 | 0.00 | 0.12 | 0.12 | 69 | 1010.8 |
| 20260905233104 | 86 | 71 | 1.0 | 4.0 | 0.00 | 0.12 | 0.12 | 67 | 1010.9 |
| 20260905231601 | 87 | 72 | 1.0 | 3.0 | 0.00 | 0.12 | 0.12 | 64 | 1010.6 |
| 20260905230128 | 89 | 84 | 1.0 | 4.0 | 0.00 | 0.12 | 0.12 | 64 | 1010.3 |
| 20260905224611 | 91 | 86 | 2.0 | 4.0 | 0.00 | 0.12 | 0.12 | 62 | 1010.2 |
| 20260905223109 | 92 | 66 | 1.0 | 4.0 | 0.00 | 0.12 | 0.12 | 61 | 1010.2 |
| 20260905221605 | 92 | 67 | 0.0 | 2.0 | 0.00 | 0.12 | 0.12 | 59 | 1010.4 |
| 20260905220106 | 92 | 0 | 0.0 | 2.0 | 0.00 | 0.12 | 0.12 | 59 | 1010.1 |
| 20260905214600 | 92 | 0 | 0.0 | 0.0 | 0.00 | 0.12 | 0.12 | 60 | 1010.1 |